FW4198 Weather Reports


Display with metric or nautical units.
time (UTC)temp
F
wind
direction
speed
MPH
gust
MPH
rain 1hr
in
rain 24hr
in
rain mn
in
humidity
%
barometer
mb
20191015105025 49 0.0 0.0 0.00 0.00 0.00 91 1018.5
20191015104024 49 112 0.0 1.0 0.00 0.00 0.00 87 1018.6
20191015103025 49 239 1.0 2.0 0.00 0.00 0.00 81 1018.5
20191015102029 48 62 2.0 3.0 0.00 0.00 0.00 83 1018.6
20191015101033 47 0.0 0.0 0.00 0.00 0.00 93 1018.8
20191015100017 47 0.0 0.0 0.00 0.00 0.00 95 1018.9
20191015095020 46 0.0 0.0 0.00 0.00 0.00 97 1019.0
20191015094023 46 0.0 0.0 0.00 0.00 0.00 99 1019.0
20191015093021 45 0.0 0.0 0.00 0.00 0.00 99 1019.0
20191015092019 45 0.0 0.0 0.00 0.00 0.00 99 1019.3
20191015091017 45 0.0 0.0 0.00 0.00 0.00 97 1019.5
20191015090026 45 0.0 0.0 0.00 0.00 0.00 96 1019.6
20191015085024 45 0.0 0.0 0.00 0.00 0.00 96 1019.9
20191015084027 45 0.0 0.0 0.00 0.00 0.00 94 1020.0
20191015083032 46 0.0 0.0 0.00 0.00 0.00 95 1020.0
20191015082029 46 0.0 0.0 0.00 0.00 0.00 96 1020.2
20191015081032 46 0.0 0.0 0.00 0.00 0.00 95 1020.2
20191015080017 46 0.0 0.0 0.00 0.00 0.00 96 1020.2
20191015075020 46 0.0 0.0 0.00 0.00 0.00 96 1020.3
20191015074024 46 0.0 0.0 0.00 0.00 0.00 96 1020.3
20191015073027 46 0.0 0.0 0.00 0.00 0.00 97 1020.0
20191015072030 46 0.0 0.0 0.00 0.00 0.00 97 1020.0
20191015071033 46 0.0 0.0 0.00 0.00 0.00 97 1019.8
20191015070019 46 0.0 0.0 0.00 0.00 0.00 97 1019.8
20191015065021 46 0.0 0.0 0.00 0.00 0.00 97 1019.8
20191015064024 46 0.0 0.0 0.00 0.00 0.00 97 1019.8
20191015063028 47 0.0 0.0 0.00 0.00 0.00 97 1019.8
20191015062032 47 0.0 0.0 0.00 0.00 0.00 97 1020.0
20191015061017 47 0.0 0.0 0.00 0.00 0.00 97 1020.3
20191015060020 47 0.0 0.0 0.00 0.00 0.00 97 1020.3
20191015055023 47 0.0 0.0 0.00 0.00 0.00 97 1020.4
20191015054021 48 0.0 0.0 0.00 0.00 0.00 97 1020.5
20191015053018 48 0.0 0.0 0.00 0.00 0.00 97 1020.5
20191015052016 48 0.0 0.0 0.00 0.00 0.00 97 1021.0
20191015051019 48 0.0 0.0 0.00 0.00 0.00 97 1021.0
20191015050022 48 0.0 0.0 0.00 0.00 0.00 97 1021.3
20191015045025 48 0.0 0.0 0.00 0.00 0.00 97 1021.4
20191015044023 48 0.0 0.0 0.00 0.00 0.00 96 1021.5
20191015043026 48 0.0 0.0 0.00 0.00 0.00 96 1021.5
20191015042024 48 0.0 0.0 0.00 0.00 0.00 94 1021.5
20191015041027 49 0.0 0.0 0.00 0.00 0.00 94 1021.7
20191015040031 49 0.0 0.0 0.00 0.00 0.00 93 1021.9
20191015035017 49 0.0 0.0 0.00 0.00 0.00 94 1022.0
20191015034019 49 0.0 0.0 0.00 0.00 0.00 93 1022.0
20191015033022 49 0.0 0.0 0.00 0.00 0.00 93 1021.9
20191015032025 49 0.0 0.0 0.00 0.00 0.00 92 1021.5
20191015031029 50 0.0 0.0 0.00 0.00 0.00 93 1021.5
20191015030032 50 0.0 0.0 0.00 0.00 0.00 93 1021.5
20191015025018 50 0.0 0.0 0.00 0.00 0.00 92 1021.5
20191015024022 50 0.0 0.0 0.00 0.00 0.00 92 1021.3
20191015023025 51 0.0 0.0 0.00 0.00 0.00 92 1021.3
20191015022028 51 0.0 0.0 0.00 0.00 0.00 91 1021.2
20191015021025 51 0.0 0.0 0.00 0.00 0.00 90 1020.9
20191015020024 51 0.0 0.0 0.00 0.00 0.00 90 1020.9
20191015015021 52 0.0 0.0 0.00 0.00 0.00 89 1020.9
20191015014019 52 0.0 0.0 0.00 0.00 0.00 89 1021.0
20191015013017 52 0.0 0.0 0.00 0.00 0.00 91 1020.8
20191015012021 53 0.0 0.0 0.00 0.00 0.00 90 1020.5
20191015011024 53 0.0 0.0 0.00 0.00 0.00 89 1020.8
20191015010027 53 0.0 0.0 0.00 0.00 0.00 89 1020.8
20191015005030 54 0.0 0.0 0.00 0.00 0.00 88 1020.9
20191015004034 54 0.0 0.0 0.00 0.00 0.00 88 1021.0
20191015003019 55 0.0 0.0 0.00 0.00 0.00 87 1021.3
20191015002023 55 0.0 0.0 0.00 0.00 0.00 85 1021.5
20191015001026 55 0.0 0.0 0.00 0.00 0.00 83 1021.5
20191015000029 56 0.0 0.0 0.00 0.00 0.00 83 1021.7
20191014235033 56 0.0 0.0 0.00 0.00 0.00 81 1021.8
20191014234019 57 0.0 0.0 0.00 0.00 0.00 81 1021.7
20191014233022 57 0.0 0.0 0.00 0.00 0.00 79 1021.7
20191014232025 58 0.0 0.0 0.00 0.00 0.00 79 1021.5
20191014231023 58 0.0 0.0 0.00 0.00 0.00 76 1021.4
20191014230021 58 0.0 0.0 0.00 0.00 0.00 73 1021.4
20191014225024 58 0.0 0.0 0.00 0.00 0.00 77 1021.4
20191014224028 58 0.0 0.0 0.00 0.00 0.00 70 1021.5
20191014223032 57 0.0 0.0 0.00 0.00 0.00 72 1021.5
20191014222029 57 0.0 0.0 0.00 0.00 0.00 71 1021.4
20191014221027 57 0.0 0.0 0.00 0.00 0.00 72 1021.4
20191014220018 57 0.0 0.0 0.00 0.00 0.00 73 1021.4
20191014215021 57 342 0.0 3.0 0.00 0.00 0.00 70 1021.5
20191014214019 57 7 0.0 2.0 0.00 0.00 0.00 73 1021.5
20191014213018 57 212 0.0 2.0 0.00 0.00 0.00 72 1021.5
20191014212016 56 0.0 0.0 0.00 0.00 0.00 73 1021.5
20191014211020 56 0.0 0.0 0.00 0.00 0.00 74 1021.5
20191014210023 55 0.0 0.0 0.00 0.00 0.00 75 1021.7
20191014205027 55 0.0 0.0 0.00 0.00 0.00 78 1021.7
20191014204031 55 324 0.0 1.0 0.00 0.00 0.00 75 1021.8
20191014203017 54 0.0 0.0 0.00 0.00 0.00 76 1022.0
20191014202019 54 0.0 0.0 0.00 0.00 0.00 79 1022.2
20191014201022 54 0.0 0.0 0.00 0.00 0.00 78 1022.2
20191014200025 53 0.0 0.0 0.00 0.00 0.00 78 1022.2
20191014195029 53 0.0 0.0 0.00 0.00 0.00 80 1022.2
20191014194032 53 0.0 0.0 0.00 0.00 0.00 82 1022.2
20191014193030 52 0.0 0.0 0.00 0.00 0.00 86 1022.4
20191014192028 52 0.0 0.0 0.00 0.00 0.00 85 1022.5
20191014191031 51 0.0 0.0 0.00 0.00 0.00 84 1022.6
20191014190018 50 0.0 0.0 0.00 0.00 0.00 90 1022.6
20191014185020 50 0.0 0.0 0.00 0.00 0.00 90 1022.6
20191014184024 49 0.0 0.0 0.00 0.00 0.00 90 1022.7
20191014183028 49 0.0 0.0 0.00 0.00 0.00 95 1022.9
20191014182030 48 45 0.0 1.0 0.00 0.00 0.00 93 1022.9
20191014181015 47 284 0.0 2.0 0.00 0.00 0.00 95 1022.8
20191014180019 47 0.0 0.0 0.00 0.00 0.00 97 1022.9
20191014175022 47 0.0 0.0 0.00 0.00 0.00 98 1022.9
20191014174029 46 0.0 0.0 0.00 0.00 0.00 97 1023.0
20191014173017 46 0.0 0.0 0.00 0.00 0.00 98 1023.0
20191014172033 45 0.0 0.0 0.00 0.00 0.00 99 1023.2
20191014171017 44 0.0 0.0 0.00 0.00 0.00 99 1023.4
20191014170021 44 0.0 0.0 0.00 0.00 0.00 99 1023.3
20191014165024 43 0.0 0.0 0.00 0.00 0.00 99 1023.3
20191014164021 43 0.0 0.0 0.00 0.00 0.00 99 1023.2
20191014163024 43 0.0 0.0 0.00 0.00 0.00 99 1023.2
20191014162027 43 0.0 0.0 0.00 0.00 0.00 99 1023.1
20191014161031 43 0.0 0.0 0.00 0.00 0.00 99 1023.1
20191014160016 42 0.0 0.0 0.00 0.00 0.00 99 1023.1
20191014155019 42 0.0 0.0 0.00 0.00 0.00 99 1023.1
20191014154018 42 0.0 0.0 0.00 0.00 0.00 99 1023.0
20191014153022 42 0.0 0.0 0.00 0.00 0.00 99 1023.1
20191014152024 42 0.0 0.0 0.00 0.00 0.00 99 1023.1
20191014151028 42 0.0 0.0 0.00 0.00 0.00 99 1023.1
20191014150031 42 0.0 0.0 0.00 0.00 0.00 99 1023.1
20191014145017 42 0.0 0.0 0.00 0.00 0.00 99 1023.1
20191014144020 42 0.0 0.0 0.00 0.00 0.00 99 1023.0
20191014143023 42 0.0 0.0 0.00 0.00 0.00 99 1023.0
20191014142026 42 0.0 0.0 0.00 0.00 0.00 99 1023.1
20191014141023 42 0.0 0.0 0.00 0.00 0.00 99 1023.0
20191014140022 42 0.0 0.0 0.00 0.00 0.00 99 1022.9
20191014135019 42 0.0 0.0 0.00 0.00 0.00 99 1022.8
20191014134016 42 0.0 0.0 0.00 0.00 0.00 99 1022.7
20191014133033 43 0.0 0.0 0.00 0.00 0.00 99 1022.6
20191014132017 43 0.0 0.0 0.00 0.00 0.00 99 1022.5
20191014131021 43 0.0 0.0 0.00 0.00 0.00 98 1022.3
20191014130024 43 0.0 0.0 0.00 0.00 0.00 98 1022.1
20191014125022 43 0.0 0.0 0.00 0.00 0.00 98 1022.1
20191014124026 44 0.0 0.0 0.00 0.00 0.00 98 1022.2
20191014123031 44 0.0 0.0 0.00 0.00 0.00 98 1022.1
20191014122032 44 0.0 0.0 0.00 0.00 0.00 99 1022.1
20191014121023 44 0.0 0.0 0.00 0.00 0.00 99 1022.1
20191014120021 44 0.0 0.0 0.00 0.00 0.00 98 1022.0
20191014115024 44 0.0 0.0 0.00 0.00 0.00 98 1022.0
20191014114027 44 0.0 0.0 0.00 0.00 0.00 98 1022.0
20191014113031 44 0.0 0.0 0.00 0.00 0.00 98 1022.0
20191014112017 44 0.0 0.0 0.00 0.00 0.00 98 1021.9
20191014111021 44 0.0 0.0 0.00 0.00 0.00 98 1021.8
20191014110018 44 0.0 0.0 0.00 0.00 0.00 98 1021.7